Amateur Radio Satellites - All Passes

Search period start: 21 May 2013 11:50
Search period end: 22 May 2013 11:50
Location: Moonridge Observatory, 39.2268°N, 77.7914°W

Satellite Date Start Highest point End Downlink Frequencies (MHz)
Time Altitude Azimuth
MaSat-1 21 May 12:06:45 12:10:01 47° 61° (ENE) 12:12:41 437.345 MHz
OPAL 21 May 12:12:41 12:17:34 53° 290° (WNW) 12:22:22 ?
JAS-2 21 May 12:14:46 12:20:43 31° 297° (WNW) 12:26:05 435.800 - 435.900 CW/SSB, 435.910 FM
UOSAT-12 21 May 12:41:45 12:46:14 65° 304° (WNW) 12:50:46 437.025 FM, 437.400 FM
HO-68 21 May 12:48:10 12:52:29 17° 305° (NW) 12:56:48 435.675 MHz FM
Uribyol 2 21 May 12:58:44 13:01:31 15° 61° (ENE) 13:04:18 436.500 FM
Oscar 19 21 May 13:04:15 13:07:48 19° 64° (ENE) 13:11:22 437.125 CW, 437.150 USB
PANSAT 21 May 13:39:15 13:41:36 15° 173° (S) 13:43:57 not established
Oscar 16 21 May 13:41:34 13:46:33 49° 71° (ENE) 13:51:34 437.025 USB, Beacon 2401.1428
AO-27 21 May 13:47:11 13:51:59 40° 70° (ENE) 13:56:49 436.795 MHz FM
ITAMSAT 1 21 May 13:54:06 13:59:00 46° 71° (ENE) 14:03:57 435.822 SSB
UOSAT-12 21 May 14:26:49 14:27:18 10° 323° (NW) 14:27:47 437.025 FM, 437.400 FM
Uribyol 2 21 May 14:35:15 14:40:23 70° 258° (WSW) 14:45:35 436.500 FM
Oscar 19 21 May 14:41:40 14:46:44 53° 260° (W) 14:51:50 437.125 CW, 437.150 USB
Uosat F 21 May 14:49:50 14:53:42 23° 66° (ENE) 14:57:34 435.120 FM
AO-Echo 21 May 14:57:18 15:02:07 61° 74° (ENE) 15:06:50 ?
Saudisat 1A 21 May 15:12:20 15:16:49 54° 55° (NE) 15:21:11 436.775 MHz
PANSAT 21 May 15:18:56 15:21:18 16° 186° (S) 15:23:40 not established
TMSAT-1 21 May 15:22:26 15:26:43 26° 66° (ENE) 15:31:01 436.925 FM
Oscar 16 21 May 15:22:32 15:26:10 19° 267° (W) 15:29:49 437.025 USB, Beacon 2401.1428
AO-27 21 May 15:27:36 15:31:38 23° 266° (W) 15:35:42 436.795 MHz FM
ITAMSAT 1 21 May 15:34:58 15:38:43 20° 267° (W) 15:42:30 435.822 SSB
PCSat 21 May 15:40:44 15:42:54 12° 40° (NE) 15:45:04 145.825 MHz
Gurwin Techsat 1B 21 May 15:42:16 15:47:27 59° 73° (ENE) 15:52:40 435.225 FM
RS-15 21 May 15:56:26 16:06:53 36° 106° (ESE) 16:16:59 29.354 - 29.394 USB, Beacon 29.352 USB
Sapphire 21 May 16:12:25 16:16:21 20° 47° (NE) 16:20:15 437.095 MHz 1200 baud AX-25 AFSK
AO-7 21 May 16:14:57 16:22:28 40° 62° (ENE) 16:30:01 29.400 - 29.500 MHz
Uosat F 21 May 16:27:35 16:32:15 39° 261° (W) 16:36:57 435.120 FM
AO-Echo 21 May 16:38:59 16:41:16 13° 269° (W) 16:43:33 ?
Saudisat 1A 21 May 16:53:26 16:56:02 15° 251° (WSW) 16:58:36 436.775 MHz
TMSAT-1 21 May 17:01:32 17:06:26 38° 262° (W) 17:11:23 436.925 FM
PCSat 21 May 17:21:55 17:27:21 70° 60° (ENE) 17:32:45 145.825 MHz
Gurwin Techsat 1B 21 May 17:24:34 17:27:48 16° 269° (W) 17:31:03 435.225 FM
Sapphire 21 May 17:54:53 18:00:16 66° 245° (WSW) 18:05:37 437.095 MHz 1200 baud AX-25 AFSK
SO-50 21 May 18:03:37 18:08:01 47° 54° (NE) 18:12:20 436.795 FM
RS-15 21 May 18:06:40 18:18:38 66° 306° (NW) 18:30:09 29.354 - 29.394 USB, Beacon 29.352 USB
AO-7 21 May 18:07:17 18:15:06 45° 260° (W) 18:23:00 29.400 - 29.500 MHz
JAS-1B 21 May 18:19:06 18:24:48 19° 59° (ENE) 18:30:01 435.800 - 435.900 CW/SSB
Hamsat 21 May 18:51:37 18:55:20 31° 71° (ENE) 18:59:04 145.90 MHz
PCSat 21 May 19:07:13 19:10:07 15° 257° (WSW) 19:13:01 145.825 MHz
STRAND 1 21 May 19:23:19 19:28:23 57° 101° (E) 19:33:26 ?
UOSAT-12 21 May 19:34:20 19:36:05 12° 39° (NE) 19:37:50 437.025 FM, 437.400 FM
HO-68 21 May 19:44:07 19:46:13 12° 51° (NE) 19:48:20 435.675 MHz FM
SO-50 21 May 19:45:16 19:48:14 17° 250° (WSW) 19:51:11 436.795 FM
JAS-1B 21 May 20:05:03 20:14:30 85° 74° (ENE) 20:22:36 435.800 - 435.900 CW/SSB
SO-67 21 May 20:18:52 20:22:25 71° 259° (W) 20:26:00 435.3500 MHz FM
RS-15 21 May 20:24:49 20:33:49 24° 334° (NNW) 20:42:34 29.354 - 29.394 USB, Beacon 29.352 USB
Hamsat 21 May 20:28:20 20:31:27 20° 266° (W) 20:34:35 145.90 MHz
JAS-2 21 May 20:39:51 20:45:33 23° 59° (ENE) 20:51:16 435.800 - 435.900 CW/SSB, 435.910 FM
STRAND 1 21 May 21:03:48 21:07:07 18° 297° (WNW) 21:10:25 ?
UOSAT-12 21 May 21:12:24 21:17:02 78° 58° (ENE) 21:21:37 437.025 FM, 437.400 FM
HO-68 21 May 21:25:31 21:32:31 63° 70° (ENE) 21:39:33 435.675 MHz FM
OPAL 21 May 21:48:34 21:52:59 29° 65° (ENE) 21:57:23 ?
KITSAT 1 21 May 21:53:30 21:57:20 14° 99° (E) 22:01:10 435.175 FM
JAS-1B 21 May 21:59:04 22:05:28 21° 268° (W) 22:11:23 435.800 - 435.900 CW/SSB
Oscar 11 21 May 22:21:47 22:26:05 79° 258° (WSW) 22:30:26 145.825 FM, Beacon 2401.500 USB
JAS-2 21 May 22:22:00 22:29:39 80° 257° (WSW) 22:37:35 435.800 - 435.900 CW/SSB, 435.910 FM
RS-15 21 May 22:44:42 22:52:07 19° 11° (N) 22:59:20 29.354 - 29.394 USB, Beacon 29.352 USB
UOSAT-12 21 May 22:55:40 22:56:32 11° 253° (WSW) 22:57:24 437.025 FM, 437.400 FM
HO-68 21 May 23:15:13 23:20:38 23° 266° (W) 23:26:06 435.675 MHz FM
OPAL 21 May 23:27:03 23:31:45 34° 261° (W) 23:36:26 ?
KITSAT 1 21 May 23:43:23 23:51:26 81° 117° (ESE) 23:59:33 435.175 FM
JAS-2 22 May 00:11:55 00:15:42 14° 274° (W) 00:19:33 435.800 - 435.900 CW/SSB, 435.910 FM
MaSat-1 22 May 00:56:29 01:00:29 16° 102° (ESE) 01:04:10 437.345 MHz
RS-15 22 May 00:58:16 01:08:45 43° 44° (NE) 01:18:53 29.354 - 29.394 USB, Beacon 29.352 USB
KITSAT 1 22 May 01:41:12 01:47:44 26° 318° (NW) 01:54:19 435.175 FM
Oscar 16 22 May 01:55:28 01:59:05 19° 93° (E) 02:02:40 437.025 USB, Beacon 2401.1428
AO-27 22 May 02:02:33 02:05:40 16° 92° (E) 02:08:47 436.795 MHz FM
ITAMSAT 1 22 May 02:09:07 02:12:39 18° 93° (E) 02:16:09 435.822 SSB
ISS 22 May 02:31:55 02:34:22 20° 131° (SE) 02:36:51 145.800 FM
AO-40 22 May 02:33:53 04:04:27 33° 234° (SW) 08:01:58 Beacon 2401.320
MaSat-1 22 May 02:35:00 02:42:15 88° 294° (WNW) 02:48:15 437.345 MHz
Uribyol 2 22 May 02:49:15 02:54:18 47° 99° (E) 02:59:19 436.500 FM
Oscar 19 22 May 02:54:23 02:59:31 61° 101° (E) 03:04:35 437.125 CW, 437.150 USB
AO-Echo 22 May 03:06:19 03:09:51 20° 94° (E) 03:13:26 ?
RS-15 22 May 03:10:48 03:21:30 59° 247° (WSW) 03:32:01 29.354 - 29.394 USB, Beacon 29.352 USB
Oscar 16 22 May 03:33:43 03:38:42 49° 289° (WNW) 03:43:38 437.025 USB, Beacon 2401.1428
AO-27 22 May 03:40:26 03:45:34 59° 287° (WNW) 03:50:41 436.795 MHz FM
TMSAT-1 22 May 03:42:37 03:42:48 10° 88° (E) 03:42:59 436.925 FM
ITAMSAT 1 22 May 03:47:22 03:52:26 52° 288° (WNW) 03:57:29 435.822 SSB
Gurwin Techsat 1B 22 May 04:00:11 04:04:34 26° 95° (E) 04:08:56 435.225 FM
ISS 22 May 04:07:42 04:10:53 42° 327° (NNW) 04:14:05 145.800 FM
MaSat-1 22 May 04:20:44 04:24:53 17° 308° (NW) 04:28:37 437.345 MHz
AO-7 22 May 04:21:46 04:23:30 11° 87° (E) 04:25:14 29.400 - 29.500 MHz
Uribyol 2 22 May 04:29:34 04:33:27 21° 295° (WNW) 04:37:19 436.500 FM
Oscar 19 22 May 04:35:11 04:38:20 17° 297° (WNW) 04:41:29 437.125 CW, 437.150 USB
Uosat F 22 May 04:36:02 04:41:03 69° 102° (ESE) 04:46:04 435.120 FM
AO-Echo 22 May 04:44:23 04:48:46 39° 289° (WNW) 04:53:14 ?
TMSAT-1 22 May 05:18:02 05:23:23 88° 284° (WNW) 05:28:41 436.925 FM
Saudisat 1A 22 May 05:19:53 05:23:03 19° 110° (ESE) 05:26:15 436.775 MHz
Gurwin Techsat 1B 22 May 05:39:45 05:44:37 38° 291° (WNW) 05:49:28 435.225 FM
KITSAT 1 22 May 05:44:51 05:46:59 11° 20° (NNE) 05:49:07 435.175 FM
ISS 22 May 05:46:43 05:48:18 13° 346° (NNW) 05:49:53 145.800 FM
AO-7 22 May 06:09:18 06:17:40 68° 105° (ESE) 06:25:58 29.400 - 29.500 MHz
Uosat F 22 May 06:16:43 06:19:16 14° 299° (WNW) 06:21:49 435.120 FM
STRAND 1 22 May 06:38:19 06:43:23 74° 74° (ENE) 06:48:29 ?
Sapphire 22 May 06:54:17 06:57:56 19° 105° (ESE) 07:01:37 437.095 MHz 1200 baud AX-25 AFSK
Saudisat 1A 22 May 06:58:01 07:02:24 46° 306° (NW) 07:06:51 436.775 MHz
TMSAT-1 22 May 07:00:56 07:02:29 11° 301° (WNW) 07:04:02 436.925 FM
ISS 22 May 07:25:26 07:26:13 11° 7° (N) 07:27:01 145.800 FM
KITSAT 1 22 May 07:38:07 07:45:24 34° 47° (NE) 07:52:38 435.175 FM
JAS-1B 22 May 07:54:40 07:58:46 19° 91° (E) 08:02:42 435.800 - 435.900 CW/SSB
PCSat 22 May 08:02:28 08:07:52 82° 116° (ESE) 08:13:19 145.825 MHz
AO-7 22 May 08:03:05 08:09:46 28° 303° (WNW) 08:16:27 29.400 - 29.500 MHz
Hamsat 22 May 08:14:28 08:18:51 78° 102° (ESE) 08:23:14 145.90 MHz
SO-50 22 May 08:18:55 08:22:28 21° 111° (ESE) 08:26:00 436.795 FM
STRAND 1 22 May 08:21:19 08:23:06 12° 270° (W) 08:24:54 ?
Sapphire 22 May 08:35:35 08:40:53 56° 302° (WNW) 08:46:13 437.095 MHz 1200 baud AX-25 AFSK
ISS 22 May 09:01:02 09:03:53 25° 27° (NNE) 09:06:43 145.800 FM
SO-67 22 May 09:20:12 09:23:38 44° 286° (WNW) 09:27:03 435.3500 MHz FM
KITSAT 1 22 May 09:33:15 09:41:11 59° 247° (WSW) 09:49:04 435.175 FM
JAS-2 22 May 09:36:25 09:40:17 16° 86° (E) 09:43:53 435.800 - 435.900 CW/SSB, 435.910 FM
JAS-1B 22 May 09:44:06 09:49:57 50° 290° (WNW) 09:55:23 435.800 - 435.900 CW/SSB
PCSat 22 May 09:48:35 09:51:59 17° 316° (NW) 09:55:23 145.825 MHz
SO-50 22 May 09:58:13 10:02:49 45° 307° (NW) 10:07:22 436.795 FM
Oscar 11 22 May 10:11:40 10:14:55 20° 94° (E) 10:18:11 145.825 FM, Beacon 2401.500 USB
Sapphire 22 May 10:25:10 10:25:32 10° 322° (NW) 10:25:55 437.095 MHz 1200 baud AX-25 AFSK
ISS 22 May 10:37:30 10:40:43 43° 224° (SW) 10:43:55 145.800 FM
HO-68 22 May 10:41:42 10:48:53 71° 104° (ESE) 10:56:01 435.675 MHz FM
JAS-2 22 May 11:19:18 11:26:15 77° 286° (WNW) 11:32:19 435.800 - 435.900 CW/SSB, 435.910 FM
MaSat-1 22 May 11:23:03 11:25:32 19° 53° (NE) 11:27:41 437.345 MHz
UOSAT-12 22 May 11:23:28 11:27:21 29° 113° (ESE) 11:31:16 437.025 FM, 437.400 FM
OPAL 22 May 11:37:37 11:42:37 70° 104° (ESE) 11:47:32 ?

Developed and maintained by Chris Peat, Heavens-Above GmbH. Please read the updated FAQ before sending e-mail. Imprint. DLR
